Hauptseite
METAR-TAF:

METAR-TAF

Flughäfen :

Flughafen Valence-Chabeuil

Valence, Frankreich

Breite: 44-54-58N, Länge: 4-58-06E, Höhe: 160 m

Beobachtung

Neuester Wetterbericht von vor 8 Stunden und 41 Minuten, um 18:00 UTC
Wind 3 kt aus Nord
Temperatur 2°C
Luftfeuchtigkeit 93%
Luftdruck 1023 hPa
Sichtweite: 5000 m
feuchter Dunst

METAR: LFLU 051800Z AUTO 01003KT 5000 BR NSC 02/01 Q1023

Zeit: 03:41 (02:41 UTC)


TAF: fehlend

Wetterbeobachtungen und Prognosen von mehr als 4000 Flughäfen (METAR und TAF Bericht).

Die verfügbaren Stationen werden durch gelbe und rote Markierungen auf der Karte dargestellt.

Führen Sie die Maus auf sie, um den Namen der Station zu sehen.

Darauf klicken, um die Beobachtung von Wetterbeobachtungen und Prognosen zu sehen.

Um die Karte zu ändern : klicken Sie auf den grünen Tasten mit einem schwarzen Kreuz Zum Vergrößern, auf den grünen Button mit einem Gedankenstrich zu verkleinern, oder auf die grünen Pfeile für benachbarte Karten.


METAR-TAF: